Location: Franzen
(48.6167°N, 15.3833°E)
Time: 10:51:29
(UTC+00:00)

Cosmos 2279 Rocket - Pass Details

Date: 22 April 2021
Orbit: 964 x 978 km, 82.9° (Epoch: 16 May)

Event Time Altitude Azimuth Distance (km) Brightness Sun altitude
Rises 19:25:00 0° 192° (SSW) 3,639 6.7 -13.1°
Reaches altitude 10° 19:27:30 10° 194° (SSW) 2,696 6.1 -13.4°
Maximum altitude 19:33:41 76° 280° (W) 999 4.2 -14.2°
Drops below altitude 10° 19:39:54 10° 7° (N) 2,718 6.8 -15.0°
Sets 19:42:26 0° 9° (N) 3,670 7.5 -15.3°
